• In Portugal
  • List of Countries
  • For 7 days
  • Water Temperature
  • Satellite Maps
  • Weather Map
  • Weather Widgets
  • user-avatar
    Login

    Hourly Weather Al-Chums

    Today, 23 October, Tuesday

    Time Temperature Precipitation Wind Pressure Humidity
    00:00 +22°C° 0.2 mm 3 mps 719 mmHg 52%
    01:00 +22°C° 0.2 mm 3 mps 719 mmHg 55%
    02:00 +21°C° 0.2 mm 3 mps 719 mmHg 57%
    03:00 +21°C° 0.1 mm 3 mps 718 mmHg 58%
    04:00 +21°C° 0.1 mm 3 mps 718 mmHg 58%
    05:00 +21°C° 0.1 mm 3 mps 718 mmHg 58%
    06:00 +22°C° 0 mm 3 mps 718 mmHg 54%
    07:00 +24°C° 0 mm 3 mps 718 mmHg 51%
    08:00 +25°C° 0 mm 3 mps 718 mmHg 47%
    09:00 +26°C° 0.1 mm 3 mps 718 mmHg 43%
    10:00 +27°C° 0.1 mm 3 mps 718 mmHg 39%
    11:00 +28°C° 0.1 mm 2 mps 718 mmHg 34%
    12:00 +29°C° 0.2 mm 2 mps 718 mmHg 33%
    13:00 +29°C° 0.2 mm 2 mps 718 mmHg 31%
    14:00 +30°C° 0.2 mm 2 mps 717 mmHg 30%
    15:00 +29°C° 0 mm 2 mps 717 mmHg 32%
    16:00 +28°C° 0 mm 2 mps 717 mmHg 34%
    17:00 +27°C° 0 mm 2 mps 716 mmHg 37%
    18:00 +27°C° 0 mm 2 mps 716 mmHg 39%
    19:00 +26°C° 0 mm 2 mps 717 mmHg 41%
    20:00 +25°C° 0 mm 1 mps 717 mmHg 44%
    21:00 +25°C° 0 mm 1 mps 716 mmHg 46%
    22:00 +24°C° 0 mm 1 mps 716 mmHg 48%
    23:00 +24°C° 0 mm 1 mps 716 mmHg 50%

    Tomorrow, 24 October, Wednesday

    Time Temperature Precipitation Wind Pressure Humidity
    00:00 +23°C° 0 mm 1 mps 716 mmHg 52%
    01:00 +23°C° 0 mm 1 mps 715 mmHg 54%
    02:00 +22°C° 0 mm 1 mps 715 mmHg 56%
    03:00 +22°C° 0 mm 1 mps 715 mmHg 57%
    04:00 +22°C° 0 mm 1 mps 715 mmHg 58%
    05:00 +22°C° 0 mm 1 mps 715 mmHg 59%
    06:00 +22°C° 0 mm 1 mps 715 mmHg 56%
    07:00 +23°C° 0 mm 1 mps 715 mmHg 53%
    08:00 +24°C° 0 mm 1 mps 716 mmHg 50%
    09:00 +25°C° 0.1 mm 1 mps 715 mmHg 47%
    10:00 +25°C° 0.1 mm 2 mps 715 mmHg 44%
    11:00 +26°C° 0.1 mm 3 mps 715 mmHg 41%
    12:00 +27°C° 0 mm 4 mps 715 mmHg 36%
    13:00 +29°C° 0 mm 4 mps 714 mmHg 31%
    14:00 +30°C° 0 mm 5 mps 714 mmHg 25%
    15:00 +29°C° 0 mm 4 mps 714 mmHg 28%
    16:00 +27°C° 0 mm 3 mps 713 mmHg 31%
    17:00 +26°C° 0 mm 2 mps 713 mmHg 35%
    18:00 +26°C° 0 mm 2 mps 713 mmHg 37%
    19:00 +25°C° 0 mm 1 mps 713 mmHg 39%
    20:00 +24°C° 0 mm 1 mps 713 mmHg 42%
    21:00 +24°C° 0 mm 1 mps 713 mmHg 42%
    22:00 +24°C° 0 mm 1 mps 713 mmHg 43%
    23:00 +23°C° 0 mm 2 mps 713 mmHg 43%

    Day after tomorrow, 25 October, Thursday

    Time Temperature Precipitation Wind Pressure Humidity
    00:00 +23°C° 0 mm 2 mps 712 mmHg 45%
    01:00 +23°C° 0 mm 2 mps 712 mmHg 47%
    02:00 +21°C° 0 mm 2 mps 712 mmHg 49%
    03:00 +21°C° 1 mm 4 mps 712 mmHg 57%
    04:00 +20°C° 1 mm 5 mps 711 mmHg 65%
    05:00 +19°C° 1 mm 6 mps 711 mmHg 73%
    06:00 +20°C° 0.5 mm 6 mps 712 mmHg 67%
    07:00 +21°C° 0.5 mm 6 mps 712 mmHg 61%
    08:00 +21°C° 0.5 mm 5 mps 712 mmHg 56%
    09:00 +23°C° 0.1 mm 6 mps 712 mmHg 51%
    10:00 +24°C° 0.1 mm 7 mps 712 mmHg 47%
    11:00 +26°C° 0.1 mm 8 mps 712 mmHg 43%
    12:00 +26°C° 0.1 mm 9 mps 712 mmHg 44%
    13:00 +26°C° 0.1 mm 9 mps 711 mmHg 45%
    14:00 +24°C° 0.1 mm 10 mps 711 mmHg 47%
    15:00 +23°C° 0 mm 9 mps 710 mmHg 51%
    16:00 +23°C° 0 mm 8 mps 710 mmHg 54%
    17:00 +22°C° 0 mm 7 mps 710 mmHg 58%
    18:00 +21°C° 0.1 mm 7 mps 710 mmHg 61%
    19:00 +21°C° 0.1 mm 7 mps 710 mmHg 63%
    20:00 +20°C° 0.1 mm 7 mps 710 mmHg 66%
    21:00 +20°C° 0.2 mm 7 mps 710 mmHg 67%
    22:00 +20°C° 0.2 mm 7 mps 710 mmHg 68%
    23:00 +18°C° 0.2 mm 7 mps 711 mmHg 70%

    26 October, Friday

    Time Temperature Precipitation Wind Pressure Humidity
    00:00 +18°C° 0.2 mm 8 mps 711 mmHg 69%
    01:00 +18°C° 0.2 mm 8 mps 711 mmHg 69%
    02:00 +17°C° 0.2 mm 8 mps 711 mmHg 69%
    03:00 +17°C° 0.2 mm 8 mps 711 mmHg 67%
    04:00 +17°C° 0.2 mm 8 mps 712 mmHg 66%
    05:00 +17°C° 0.2 mm 9 mps 712 mmHg 64%
    06:00 +17°C° 0 mm 8 mps 713 mmHg 62%
    07:00 +17°C° 0 mm 8 mps 714 mmHg 60%
    08:00 +17°C° 0 mm 8 mps 715 mmHg 57%
    09:00 +18°C° 0 mm 8 mps 716 mmHg 52%
    10:00 +20°C° 0 mm 7 mps 717 mmHg 47%
    11:00 +21°C° 0 mm 7 mps 717 mmHg 41%
    12:00 +21°C° 0 mm 7 mps 717 mmHg 40%
    13:00 +21°C° 0 mm 7 mps 717 mmHg 38%
    14:00 +21°C° 0 mm 6 mps 717 mmHg 37%
    15:00 +20°C° 0 mm 6 mps 718 mmHg 39%
    16:00 +20°C° 0 mm 5 mps 718 mmHg 41%
    17:00 +19°C° 0 mm 4 mps 718 mmHg 43%
    18:00 +18°C° 0 mm 3 mps 719 mmHg 45%
    19:00 +17°C° 0 mm 3 mps 720 mmHg 47%
    20:00 +17°C° 0 mm 2 mps 720 mmHg 49%
    21:00 +16°C° 0 mm 1 mps 720 mmHg 51%
    22:00 +16°C° 0 mm 1 mps 721 mmHg 53%
    23:00 +16°C° 0 mm 1 mps 721 mmHg 54%

    27 October, Saturday

    Time Temperature Precipitation Wind Pressure Humidity
    00:00 +15°C° 0 mm 1 mps 721 mmHg 55%
    01:00 +15°C° 0 mm 1 mps 721 mmHg 55%
    02:00 +15°C° 0 mm 1 mps 721 mmHg 56%
    03:00 +14°C° 0 mm 1 mps 722 mmHg 56%
    04:00 +14°C° 0 mm 1 mps 722 mmHg 56%
    05:00 +14°C° 0 mm 1 mps 722 mmHg 56%
    06:00 +15°C° 0 mm 2 mps 723 mmHg 51%
    07:00 +16°C° 0 mm 2 mps 723 mmHg 47%
    08:00 +17°C° 0 mm 2 mps 724 mmHg 42%
    09:00 +19°C° 0 mm 3 mps 724 mmHg 39%
    10:00 +20°C° 0 mm 3 mps 724 mmHg 35%
    11:00 +21°C° 0 mm 3 mps 724 mmHg 32%
    12:00 +22°C° 0 mm 3 mps 724 mmHg 30%
    13:00 +24°C° 0 mm 3 mps 723 mmHg 29%
    14:00 +24°C° 0 mm 3 mps 723 mmHg 27%
    15:00 +22°C° 0 mm 3 mps 723 mmHg 29%
    16:00 +22°C° 0 mm 3 mps 723 mmHg 30%
    17:00 +21°C° 0 mm 3 mps 723 mmHg 32%
    18:00 +20°C° 0 mm 4 mps 723 mmHg 32%
    19:00 +19°C° 0 mm 4 mps 723 mmHg 33%
    20:00 +19°C° 0 mm 4 mps 723 mmHg 34%
    21:00 +18°C° 0 mm 3 mps 723 mmHg 34%
    22:00 +18°C° 0 mm 3 mps 723 mmHg 35%
    23:00 +17°C° 0 mm 3 mps 723 mmHg 35%

    28 October, Sunday

    Time Temperature Precipitation Wind Pressure Humidity
    00:00 +17°C° 0 mm 3 mps 723 mmHg 35%
    01:00 +17°C° 0 mm 3 mps 723 mmHg 36%
    02:00 +16°C° 0 mm 3 mps 723 mmHg 36%
    03:00 +16°C° 0 mm 3 mps 723 mmHg 36%
    04:00 +16°C° 0 mm 2 mps 723 mmHg 36%
    05:00 +15°C° 0 mm 2 mps 723 mmHg 36%
    06:00 +16°C° 0 mm 2 mps 723 mmHg 33%
    07:00 +18°C° 0 mm 3 mps 723 mmHg 30%
    08:00 +19°C° 0 mm 3 mps 724 mmHg 28%
    09:00 +20°C° 0 mm 3 mps 724 mmHg 26%
    10:00 +22°C° 0 mm 3 mps 724 mmHg 24%
    11:00 +24°C° 0 mm 3 mps 724 mmHg 22%
    12:00 +25°C° 0 mm 3 mps 723 mmHg 21%
    13:00 +25°C° 0 mm 3 mps 723 mmHg 21%
    14:00 +26°C° 0 mm 4 mps 723 mmHg 20%
    15:00 +25°C° 0 mm 3 mps 722 mmHg 22%
    16:00 +24°C° 0 mm 3 mps 722 mmHg 25%
    17:00 +22°C° 0 mm 3 mps 722 mmHg 27%
    18:00 +21°C° 0 mm 3 mps 722 mmHg 28%
    19:00 +20°C° 0 mm 3 mps 722 mmHg 29%
    20:00 +20°C° 0 mm 3 mps 722 mmHg 30%
    21:00 +19°C° 0 mm 3 mps 722 mmHg 30%
    22:00 +19°C° 0 mm 3 mps 722 mmHg 30%
    23:00 +19°C° 0 mm 3 mps 722 mmHg 31%
    Show more